GW2991 Weather Reports


Display with metric or nautical units.
time (UTC)temp
F
wind
direction
speed
MPH
gust
MPH
rain 1hr
in
rain 24hr
in
rain mn
in
humidity
%
barometer
mb
20260507121209 50 308 2.0 4.0 0.00 0.00 0.00 65 1008.8
20260507120707 50 309 2.0 4.0 0.00 0.00 0.00 65 1008.8
20260507120211 51 340 1.0 4.0 0.00 0.00 0.00 65 1008.8
20260507115654 51 302 1.0 3.0 0.00 0.00 0.00 64 1009.0
20260507115157 52 298 2.0 4.0 0.00 0.00 0.00 64 1008.8
20260507114155 52 299 3.0 7.0 0.00 0.00 0.00 63 1008.5
20260507113656 53 289 3.0 9.0 0.00 0.00 0.00 63 1008.4
20260507113156 53 292 4.0 9.0 0.00 0.00 0.00 62 1008.3
20260507112654 53 300 3.0 8.0 0.00 0.00 0.00 62 1008.1
20260507112156 53 311 3.0 8.0 0.00 0.00 0.00 63 1008.0
20260507111659 53 310 3.0 6.0 0.00 0.00 0.00 63 1008.0
20260507111156 52 300 3.0 6.0 0.00 0.00 0.00 63 1007.9
20260507110656 52 291 2.0 6.0 0.00 0.00 0.00 64 1008.0
20260507110157 52 296 2.0 5.0 0.00 0.00 0.00 64 1008.1
20260507105156 52 302 2.0 6.0 0.00 0.00 0.00 64 1008.0
20260507104658 52 303 2.0 5.0 0.00 0.00 0.00 64 1008.0
20260507104154 52 300 2.0 5.0 0.00 0.00 0.00 64 1007.9
20260507103654 52 294 2.0 4.0 0.00 0.00 0.00 64 1007.9
20260507103154 52 270 2.0 4.0 0.00 0.00 0.00 64 1007.9
20260507102159 52 295 2.0 4.0 0.00 0.00 0.00 64 1007.9
20260507101654 52 295 2.0 4.0 0.00 0.00 0.00 64 1007.9
20260507101154 52 326 1.0 4.0 0.00 0.00 0.00 64 1007.9
20260507100653 52 287 1.0 4.0 0.00 0.00 0.00 64 1007.9
20260507100154 52 313 1.0 4.0 0.00 0.00 0.00 64 1007.8
20260507095654 52 279 1.0 3.0 0.00 0.00 0.00 64 1007.8
20260507095202 52 274 2.0 4.0 0.00 0.00 0.00 64 1007.9
20260507094656 53 305 2.0 4.0 0.00 0.00 0.00 63 1008.0
20260507094154 53 264 2.0 5.0 0.00 0.00 0.00 63 1008.0
20260507093655 53 246 2.0 5.0 0.00 0.00 0.00 62 1008.0
20260507093153 53 232 2.0 4.0 0.00 0.00 0.00 62 1007.9
20260507092654 53 245 2.0 5.0 0.00 0.00 0.00 62 1007.8
20260507092151 53 289 2.0 5.0 0.00 0.00 0.00 62 1007.8
20260507090658 53 221 2.0 4.0 0.00 0.00 0.00 63 1007.9
20260507090152 53 209 2.0 4.0 0.00 0.00 0.00 63 1007.8
20260507085736 53 234 2.0 5.0 0.00 0.00 0.00 63 1007.8
20260507085151 53 216 2.0 7.0 0.00 0.00 0.00 62 1007.8
20260507084652 53 207 3.0 7.0 0.00 0.00 0.00 62 1007.8
20260507084149 53 260 3.0 7.0 0.00 0.00 0.00 62 1007.7
20260507083653 54 269 2.0 6.0 0.00 0.00 0.00 61 1007.7
20260507081648 54 235 4.0 7.0 0.00 0.00 0.00 61 1007.7
20260507081148 54 218 4.0 7.0 0.00 0.00 0.00 61 1007.7
20260507075648 54 223 4.0 8.0 0.00 0.00 0.00 62 1007.8
20260507075149 54 232 4.0 9.0 0.00 0.00 0.00 62 1007.7
20260507074649 54 222 5.0 9.0 0.00 0.00 0.00 62 1007.7
20260507074153 54 228 5.0 9.0 0.00 0.00 0.00 62 1007.8
20260507073647 54 228 4.0 9.0 0.00 0.00 0.00 62 1007.9
20260507073147 54 231 4.0 9.0 0.00 0.00 0.00 63 1007.9
20260507072645 54 237 4.0 9.0 0.00 0.00 0.00 63 1007.9
20260507072146 55 167 4.0 8.0 0.00 0.00 0.00 62 1007.9
20260507071651 55 209 3.0 6.0 0.00 0.00 0.00 63 1007.9
20260507071146 55 206 3.0 7.0 0.00 0.00 0.00 63 1007.8
20260507070647 55 218 3.0 7.0 0.00 0.00 0.00 62 1007.9
20260507070147 55 214 3.0 6.0 0.00 0.00 0.00 63 1008.0
20260507065646 55 180 3.0 6.0 0.00 0.00 0.00 63 1007.9
20260507065151 55 219 2.0 6.0 0.00 0.00 0.00 62 1008.0
20260507064647 55 190 2.0 4.0 0.00 0.00 0.00 62 1007.9
20260507064146 55 232 2.0 4.0 0.00 0.00 0.00 61 1007.8
20260507063647 55 223 2.0 4.0 0.00 0.00 0.00 63 1007.9
20260507063146 55 238 2.0 3.0 0.00 0.00 0.00 63 1007.9
20260507061648 55 328 2.0 5.0 0.00 0.00 0.00 61 1008.4
20260507061143 56 347 2.0 4.0 0.00 0.00 0.00 60 1008.3
20260507060145 56 284 2.0 4.0 0.00 0.00 0.00 59 1008.1
20260507055645 56 297 2.0 4.0 0.00 0.00 0.00 59 1008.1
20260507055148 55 324 2.0 4.0 0.00 0.00 0.00 59 1008.0
20260507054144 55 298 1.0 4.0 0.00 0.00 0.00 59 1007.8
20260507053643 55 340 2.0 5.0 0.00 0.00 0.00 60 1007.9
20260507052142 55 308 2.0 4.0 0.00 0.00 0.00 61 1008.2
20260507051642 55 291 1.0 4.0 0.00 0.00 0.00 60 1008.2
20260507051143 55 328 1.0 2.0 0.00 0.00 0.00 59 1008.3
20260507050142 55 0 1.0 3.0 0.00 0.00 0.00 59 1008.2
20260507045639 55 346 1.0 2.0 0.00 0.00 0.00 58 1008.2
20260507044137 56 13 1.0 3.0 0.00 0.00 0.00 57 1007.9
20260507043636 56 357 1.0 3.0 0.00 0.00 0.00 57 1007.9
20260507043137 56 28 1.0 2.0 0.00 0.00 0.00 56 1008.0
20260507042137 57 322 1.0 3.0 0.00 0.00 0.00 56 1007.8
20260507041636 57 309 1.0 3.0 0.00 0.00 0.00 55 1007.8
20260507041137 58 0 2.0 3.0 0.00 0.00 0.00 55 1007.9
20260507040643 58 268 2.0 5.0 0.00 0.00 0.00 55 1007.8
20260507035634 58 240 2.0 7.0 0.00 0.00 0.00 53 1007.7
20260507034141 60 233 3.0 6.0 0.00 0.00 0.00 49 1007.1
20260507033635 60 212 3.0 8.0 0.00 0.00 0.00 49 1006.9
20260507033137 60 158 4.0 8.0 0.00 0.00 0.00 49 1006.9
20260507032635 61 145 4.0 7.0 0.00 0.00 0.00 47 1007.2
20260507032135 62 138 3.0 7.0 0.00 0.00 0.00 42 1006.8
20260507031637 62 222 2.0 6.0 0.00 0.00 0.00 40 1007.7
20260507031137 62 288 3.0 6.0 0.00 0.00 0.00 38 1007.7
20260507030132 62 310 2.0 8.0 0.00 0.00 0.00 37 1007.5
20260507025630 62 216 3.0 9.0 0.00 0.00 0.00 37 1007.3
20260507025131 62 139 4.0 9.0 0.00 0.00 0.00 36 1007.2
20260507024634 62 225 4.0 11.0 0.00 0.00 0.00 37 1007.2
20260507024130 62 281 5.0 15.0 0.00 0.00 0.00 38 1007.3
20260507023630 62 226 5.0 15.0 0.00 0.00 0.00 38 1007.1
20260507023132 62 253 3.0 8.0 0.00 0.00 0.00 36 1007.5
20260507022630 62 152 3.0 6.0 0.00 0.00 0.00 38 1007.6
20260507021627 63 144 2.0 7.0 0.00 0.00 0.00 36 1008.5
20260507021126 63 211 2.0 7.0 0.00 0.00 0.00 32 1007.6
20260507020624 63 117 3.0 7.0 0.00 0.00 0.00 31 1007.3
20260507020126 64 174 2.0 7.0 0.00 0.00 0.00 31 1007.0
20260507015624 64 164 2.0 6.0 0.00 0.00 0.00 31 1006.9
20260507015129 64 208 3.0 9.0 0.00 0.00 0.00 31 1006.8
20260507014625 64 147 4.0 10.0 0.00 0.00 0.00 31 1006.5
20260507014124 64 171 4.0 10.0 0.00 0.00 0.00 31 1006.4
20260507013624 64 153 4.0 9.0 0.00 0.00 0.00 31 1006.3
20260507013125 65 143 5.0 9.0 0.00 0.00 0.00 30 1006.3
20260507012626 65 132 5.0 9.0 0.00 0.00 0.00 30 1006.2
20260507011623 65 131 3.0 6.0 0.00 0.00 0.00 30 1006.3
20260507011122 65 138 4.0 7.0 0.00 0.00 0.00 30 1006.4
20260507010622 65 146 4.0 7.0 0.00 0.00 0.00 30 1006.3
20260507010125 65 103 4.0 7.0 0.00 0.00 0.00 30 1006.2
20260507005623 65 116 4.0 9.0 0.00 0.00 0.00 30 1006.2
20260507005123 66 132 4.0 9.0 0.00 0.00 0.00 29 1006.2
20260507004124 67 184 3.0 7.0 0.00 0.00 0.00 29 1006.1
20260507003627 67 67 3.0 7.0 0.00 0.00 0.00 29 1006.1
20260507003123 67 152 3.0 7.0 0.00 0.00 0.00 29 1006.0
20260507002623 67 84 3.0 8.0 0.00 0.00 0.00 29 1005.8
20260507002122 67 146 4.0 8.0 0.00 0.00 0.00 29 1005.8
20260507001126 68 96 3.0 7.0 0.00 0.00 0.00 29 1005.8
20260507000622 68 71 3.0 7.0 0.00 0.00 0.00 28 1006.0
20260507000122 68 78 3.0 7.0 0.00 0.00 0.00 28 1005.8
20260506235622 68 120 3.0 7.0 0.00 0.00 0.00 28 1005.8
20260506234625 68 54 2.0 9.0 0.00 0.00 0.00 28 1005.8
20260506234123 68 58 2.0 9.0 0.00 0.00 0.00 28 1005.8
20260506233618 68 42 3.0 9.0 0.00 0.00 0.00 28 1005.7
20260506233120 68 76 4.0 11.0 0.00 0.00 0.00 29 1005.7
20260506232620 68 111 4.0 11.0 0.00 0.00 0.00 28 1006.0
20260506232120 69 107 4.0 11.0 0.00 0.00 0.00 28 1005.8
20260506231626 69 135 3.0 8.0 0.00 0.00 0.00 27 1005.7
20260506231121 69 98 3.0 8.0 0.00 0.00 0.00 28 1005.7
20260506230621 69 129 3.0 9.0 0.00 0.00 0.00 27 1005.6
20260506230120 68 64 4.0 9.0 0.00 0.00 0.00 28 1005.6
20260506225620 68 93 4.0 9.0 0.00 0.00 0.00 28 1005.5
20260506224621 68 102 4.0 9.0 0.00 0.00 0.00 29 1005.8
20260506224121 67 141 3.0 10.0 0.00 0.00 0.00 29 1005.8
20260506223118 67 145 4.0 11.0 0.00 0.00 0.00 29 1005.8
20260506222617 67 124 4.0 10.0 0.00 0.00 0.00 29 1006.1
20260506222118 67 179 4.0 10.0 0.00 0.00 0.00 28 1006.1
20260506221619 67 139 3.0 10.0 0.00 0.00 0.00 28 1006.3
20260506221117 67 155 2.0 9.0 0.00 0.00 0.00 28 1006.4
20260506220617 67 161 2.0 9.0 0.00 0.00 0.00 28 1006.5
20260506220118 67 161 2.0 9.0 0.00 0.00 0.00 27 1006.6
20260506215618 67 0 2.0 6.0 0.00 0.00 0.00 28 1006.8
20260506215119 67 132 3.0 10.0 0.00 0.00 0.00 28 1006.8
20260506214616 67 128 3.0 10.0 0.00 0.00 0.00 28 1006.7
20260506214116 67 109 3.0 9.0 0.00 0.00 0.00 28 1006.8
20260506212615 68 128 4.0 13.0 0.00 0.00 0.00 28 1006.6
20260506212119 68 167 4.0 10.0 0.00 0.00 0.00 27 1006.4
20260506211614 67 82 4.0 11.0 0.00 0.00 0.00 28 1006.5
20260506211115 67 177 4.0 11.0 0.00 0.00 0.00 28 1006.4
20260506210615 67 154 5.0 12.0 0.00 0.00 0.00 27 1006.4
20260506210115 67 100 4.0 12.0 0.00 0.00 0.00 28 1006.9
20260506205619 67 144 5.0 13.0 0.00 0.00 0.00 28 1006.6
20260506205116 67 127 5.0 13.0 0.00 0.00 0.00 29 1006.7
20260506204616 66 170 4.0 12.0 0.00 0.00 0.00 29 1006.6
20260506204112 66 152 5.0 15.0 0.00 0.00 0.00 29 1006.7
20260506203613 66 107 6.0 15.0 0.00 0.00 0.00 29 1007.1
20260506202619 66 138 5.0 13.0 0.00 0.00 0.00 29 1006.6
20260506202112 65 113 6.0 13.0 0.00 0.00 0.00 30 1007.0
20260506201613 65 139 5.0 13.0 0.00 0.00 0.00 29 1006.9
20260506201112 65 146 4.0 13.0 0.00 0.00 0.00 30 1007.0
20260506200117 64 183 4.0 11.0 0.00 0.00 0.00 30 1007.1
20260506195613 63 148 5.0 13.0 0.00 0.00 0.00 30 1007.3
20260506195111 63 111 4.0 13.0 0.00 0.00 0.00 30 1007.2
20260506194620 63 147 4.0 11.0 0.00 0.00 0.00 30 1007.2
20260506194108 63 144 5.0 11.0 0.00 0.00 0.00 30 1007.5
20260506193608 63 227 5.0 13.0 0.00 0.00 0.00 29 1006.8
20260506193113 62 155 5.0 13.0 0.00 0.00 0.00 30 1007.2
20260506192608 61 96 5.0 14.0 0.00 0.00 0.00 32 1007.5
20260506192111 61 136 6.0 17.0 0.00 0.00 0.00 32 1007.6
20260506191107 61 102 6.0 14.0 0.00 0.00 0.00 32 1007.6
20260506190619 61 135 6.0 14.0 0.00 0.00 0.00 32 1007.9
20260506190118 61 152 6.0 14.0 0.00 0.00 0.00 32 1008.4
20260506185608 61 163 6.0 12.0 0.00 0.00 0.00 33 1007.5
20260506185109 61 108 6.0 17.0 0.00 0.00 0.00 32 1007.3
20260506184609 60 101 6.0 17.0 0.00 0.00 0.00 32 1007.9
20260506184106 60 116 6.0 14.0 0.00 0.00 0.00 34 1007.6
20260506183607 60 148 7.0 14.0 0.00 0.00 0.00 33 1007.9
20260506182606 59 133 6.0 13.0 0.00 0.00 0.00 33 1007.7
20260506181107 58 148 6.0 13.0 0.00 0.00 0.00 34 1008.1
20260506180606 58 149 6.0 13.0 0.00 0.00 0.00 34 1008.2
20260506180107 58 156 6.0 14.0 0.00 0.00 0.00 34 1008.0
20260506175606 58 142 7.0 15.0 0.00 0.00 0.00 34 1008.0
20260506174609 57 197 6.0 17.0 0.00 0.00 0.00 35 1008.3
20260506174104 57 174 6.0 17.0 0.00 0.00 0.00 35 1008.5
20260506173604 57 192 6.0 17.0 0.00 0.00 0.00 35 1008.4
20260506173104 57 156 7.0 17.0 0.00 0.00 0.00 35 1008.8
20260506172106 56 155 8.0 16.0 0.00 0.00 0.00 36 1008.8
20260506171104 56 141 7.0 17.0 0.00 0.00 0.00 36 1009.0
20260506170604 56 137 7.0 16.0 0.00 0.00 0.00 36 1008.8
20260506170100 55 131 7.0 16.0 0.00 0.00 0.00 36 1009.0
20260506165602 55 140 6.0 14.0 0.00 0.00 0.00 37 1009.0
20260506165103 55 174 6.0 14.0 0.00 0.00 0.00 37 1008.8
20260506163600 53 135 7.0 16.0 0.00 0.00 0.00 38 1009.1
20260506163102 53 133 6.0 16.0 0.00 0.00 0.00 38 1009.1
20260506162101 52 129 6.0 13.0 0.00 0.00 0.00 39 1009.2
20260506161600 51 145 6.0 13.0 0.00 0.00 0.00 39 1009.3
20260506161101 51 173 6.0 13.0 0.00 0.00 0.00 39 1009.4
20260506160601 51 144 6.0 13.0 0.00 0.00 0.00 40 1009.6
20260506160112 50 162 6.0 13.0 0.00 0.00 0.00 40 1009.6
20260506155602 50 183 7.0 13.0 0.00 0.00 0.00 41 1009.8
20260506155100 49 136 6.0 12.0 0.00 0.00 0.00 41 1009.8
20260506154559 49 154 5.0 13.0 0.00 0.00 0.00 41 1009.8
20260506154100 49 182 5.0 13.0 0.00 0.00 0.00 42 1009.8
20260506153600 48 152 5.0 16.0 0.00 0.00 0.00 42 1009.9
20260506153103 48 128 6.0 16.0 0.00 0.00 0.00 42 1010.0
20260506152600 47 134 6.0 15.0 0.00 0.00 0.00 43 1010.1
20260506152101 47 143 5.0 14.0 0.00 0.00 0.00 42 1010.1
20260506151100 47 139 5.0 12.0 0.00 0.00 0.00 42 1010.1
20260506150111 47 141 5.0 12.0 0.00 0.00 0.00 42 1010.3
20260506145557 46 186 6.0 12.0 0.00 0.00 0.00 43 1010.6
20260506145059 46 167 6.0 13.0 0.00 0.00 0.00 43 1010.6
20260506144558 45 193 5.0 13.0 0.00 0.00 0.00 43 1010.6
20260506144059 45 217 6.0 13.0 0.00 0.00 0.00 44 1010.7
20260506143558 44 178 6.0 13.0 0.00 0.00 0.00 44 1010.9
20260506143058 44 183 6.0 12.0 0.00 0.00 0.00 45 1010.9
20260506142559 43 165 6.0 13.0 0.00 0.00 0.00 46 1011.0
20260506141604 43 122 6.0 15.0 0.00 0.00 0.00 46 1011.1
20260506141059 42 156 6.0 13.0 0.00 0.00 0.00 46 1011.1
20260506140556 42 147 6.0 13.0 0.00 0.00 0.00 46 1011.1
20260506135557 42 136 5.0 11.0 0.00 0.00 0.00 47 1011.3
20260506135055 41 104 5.0 12.0 0.00 0.00 0.00 48 1011.3
20260506134602 40 174 5.0 12.0 0.00 0.00 0.00 49 1011.3
20260506134056 39 143 6.0 12.0 0.00 0.00 0.00 50 1011.4
20260506133557 38 143 5.0 12.0 0.00 0.00 0.00 52 1011.6
20260506133056 37 150 5.0 9.0 0.00 0.00 0.00 53 1011.8
20260506132556 37 133 5.0 11.0 0.00 0.00 0.00 53 1011.9
20260506132056 36 140 6.0 12.0 0.00 0.00 0.00 54 1011.9
20260506131555 36 155 6.0 12.0 0.00 0.00 0.00 55 1011.9
20260506131054 35 140 6.0 11.0 0.00 0.00 0.00 56 1012.1
20260506130555 35 143 6.0 11.0 0.00 0.00 0.00 57 1012.1
20260506130054 34 153 6.0 10.0 0.00 0.00 0.00 58 1012.4
20260506125554 34 138 6.0 10.0 0.00 0.00 0.00 58 1012.5
20260506124555 33 149 5.0 9.0 0.00 0.00 0.00 59 1012.6
20260506124053 33 125 5.0 10.0 0.00 0.00 0.00 59 1012.6
20260506123054 33 165 5.0 10.0 0.00 0.00 0.00 59 1012.8